Weather in Valuysky

Russia / Oryol Oblast     53°08′50″N   36°19′03″E
temp.,
°C
wind,
m/s
gust,
m/s
humid.,
%
clouds,
%
prec.,
mm/h
press.,
hPa
HPBL,
m
9 may, sun
sun900:00+6wnw71195100 1.4 1005838
03:00+3nw71497100 4.5 1008986
06:00+3nw71397100 2.6 1010726
09:00+5nw81181100 2.7 10121114
12:00+7nw8107699 0.3 10151263
15:00+8nw9116464 0.4 10171550
18:00+9nw6116583 0.0 10191621
21:00+5wnw410805 0.0 1021171
10 may, mon
mon1000:00+3nw410825 0.0 1023175
03:00+2nnw411844 0.0 1025204
06:00+3nnw410780 0.0 1027210
09:00+9n58620 0.0 1027541
12:00+12n79495 0.0 10271632
15:00+13nne710450 0.0 10261686
18:00+11nne610590 0.0 10261077
21:00+6n412780 0.0 1027216
11 may, tue
tue1100:00+6nne514756 0.0 1026332
03:00+7nne61470100 0.0 1025420
06:00+7nne6147277 0.0 1026426
09:00+11ne81474100 0.0 1024535
12:00+14ene8127365 0.0 1024819
15:00+17ene71171100 0.1 10231256
18:00+15e6118295 0.6 1024930
21:00+10e34923 0.6 102452
12 may, wed
wed1200:00+9se3690100 0.0 1024129
03:00+8sse4894100 2.5 1024363
06:00+8e2496100 3.1 1024159
09:00+12e567928 3.1 1023744
12:00+15e796322 0.2 10221465
15:00+14ese6968100 0.9 10201245
18:00+13se4975100 0.6 1019343
21:00+11sse31086100 0.7 1019432
13 may, thu
thu1300:00+10ese3892100 0.2 1019281
03:00+10ese3794100 0.8 1019168
06:00+10ese3993100 0.3 1018284
09:00+13se4108699 0.3 1018522
12:00+18sse686476 0.1 10181502
15:00+18sse576293 0.3 10171501
18:00+18se466928 0.1 1017542
21:00+14se4784100 0.1 1017100